Airfield :
LOGIN :

Register | Disclaimer

   EN    FR    IT 

 










Legend :    VFR   Marginal VFR   IFR   Intensive IFR   Very Intensive IFR
Visi :
Ceiling :
>= 8 km
>= 3000ft
5 to 8 km
1000 to 3000 ft
1500m to 5 km
500 to 1000 ft
800 to 1500m
200 to 500 ft
< 800m
< 200 ft
Symbols :   Thunderstorms  Fog  Heavy snow  Heavy precipitations  Wind > 20 kt
SIGMETs :     Misc.  Thunderstorms  Icing  Turbulence  Mountain Waves  Volcanic Ashes







- Airport Elevation : 1249 ft


ETSN - Neuburg AB

CURRENT METAR :
  • 131620Z 18005KT 9999 FEW090 SCT140 BKN190 01/M03 Q1007 BLU BLU BECMG WHT

EXPIRED METARs :
  • 131522Z 20003KT 9999 FEW130 BKN180 01/M03 Q1008 BLU BLU+
  • 131420Z 17005KT 9999 FEW160 BKN200 02/M03 Q1009 BLU+BLU+

TAF TAF ETSN
Valid from the 13 at 15:00 until the 14 at 00:00 UTC


131420Z 1315/1324 20008KT 9999 NSW SCT030 BKN150
BECMG 1317/1319 21008KT 5000 -SN SCT008 BKN020 BKN150
TEMPO 1319/1324 21010KT 3000 SN BKN008 BKN015 BY ETGL
No reported NOTAMs for that airfield.



MET'MAP, your aeronautical weather chart ! - Copyright ORBIFLY December 2007 - Disclaimer

ORBIFLY MET'MAP TEAM :

Programming & Development : Alexandra Zaïnal
Concept & Development : Baudouin d'Aumeries
Co-Development & Prog : Marc-Olivier Méhu
Technical & hardware support : Manuel Goepfert

Contact : metmap@orbifly.com




SOURCES & CREDITS :

   NOAA